This is the latest recevied weather packets stored in our database for station/object W6UA-13. If no packets are shown the sender has not sent any weather packets the latest 1 day(s).
| Time | Temp. | Humidity | Pressure | Rain* | Wind** | Luminosity | Snow |
|---|---|---|---|---|---|---|---|
| 1778040279 | 13.33° C | 80% | 1016.8 hPa | 0 mm | 0.45 m/s, 302° | 0 W/m² | - |
| 1778039379 | 13.33° C | 79% | 1016.5 hPa | 0 mm | 0.89 m/s, 313° | 0 W/m² | - |
| 1778038479 | 13.33° C | 78% | 1016.4 hPa | 0 mm | 0.45 m/s, 291° | 0 W/m² | - |
| 1778037579 | 13.89° C | 77% | 1016.2 hPa | 0 mm | 0.89 m/s, 300° | 0 W/m² | - |
| 1778036679 | 13.89° C | 77% | 1015.9 hPa | 0 mm | 1.79 m/s, 283° | 0 W/m² | - |
| 1778035779 | 13.89° C | 75% | 1015.9 hPa | 0 mm | 1.79 m/s, 307° | 5 W/m² | - |
| 1778034879 | 14.44° C | 73% | 1015.9 hPa | 0 mm | 1.79 m/s, 266° | 11 W/m² | - |
| 1778033979 | 15° C | 71% | 1015.9 hPa | 0 mm | 1.79 m/s, 333° | 19 W/m² | - |
| 1778033079 | 15.56° C | 68% | 1015.9 hPa | 0 mm | 2.68 m/s, 330° | 72 W/m² | - |
| 1778032179 | 16.11° C | 64% | 1015.9 hPa | 0 mm | 2.24 m/s, 5° | 83 W/m² | - |
| 1778031279 | 17.22° C | 61% | 1016 hPa | 0 mm | 1.79 m/s, 313° | 199 W/m² | - |
| 1778030689 | 17.22° C | 62% | 1016.2 hPa | 0 mm | 1.79 m/s, 309° | 234 W/m² | - |
| 1778030653 | 17.22° C | 62% | 1016.2 hPa | 0 mm | 1.79 m/s, 309° | 234 W/m² | - |
| 1778030379 | 17.22° C | 62% | 1016.2 hPa | 0 mm | 1.79 m/s, 309° | 234 W/m² | - |
| 1778029479 | 17.78° C | 61% | 1016.3 hPa | 0 mm | 2.24 m/s, 313° | 246 W/m² | - |
| 1778028579 | 17.78° C | 60% | 1016.3 hPa | 0 mm | 2.24 m/s, 347° | 200 W/m² | - |
| 1778027679 | 18.33° C | 57% | 1015.9 hPa | 0 mm | 2.24 m/s, 274° | 323 W/m² | - |
| 1778026779 | 18.33° C | 59% | 1015.8 hPa | 0 mm | 2.24 m/s, 290° | 88 W/m² | - |
| 1778025879 | 18.89° C | 58% | 1015.7 hPa | 0 mm | 1.34 m/s, 208° | 65 W/m² | - |
| 1778024979 | 18.89° C | 58% | 1015.5 hPa | 0 mm | 1.34 m/s, 304° | 135 W/m² | - |
| 1778024079 | 18.89° C | 61% | 1015.6 hPa | 0 mm | 1.79 m/s, 280° | 193 W/m² | - |
| 1778023179 | 17.22° C | 66% | 1015.6 hPa | 0 mm | 2.68 m/s, 258° | 376 W/m² | - |
| 1778022279 | 17.22° C | 66% | 1015.7 hPa | 0 mm | 3.13 m/s, 269° | 271 W/m² | - |
| 1778021379 | 18.33° C | 62% | 1015.9 hPa | 0 mm | 2.24 m/s, 219° | 432 W/m² | - |
| 1778020479 | 18.89° C | 61% | 1015.9 hPa | 0 mm | 2.24 m/s, 189° | 410 W/m² | - |
* Rain latest hour (hover to see other rain measurements)
** Current wind speed in m/s (hover to see current wind gust speed)